Regional Weather Roundup
Issued by NWS Charleston, SC

Current Version | Previous Version | Graphics & Text | Print | Product List | Glossary On
Versions: 1 2 3 4 5 6 7 8 9 10 11 12 13 14 15 16 17 18 19 20 21 22 23 24 25 26 27 28 29 30 31 32 33 34 35 36 37 38 39 40 41 42 43 44 45 46 47 48 49 50
000
ASUS42 KCHS 050626
RWRCHS

REGIONAL WEATHER ROUNDUP
NATIONAL WEATHER SERVICE CHARLESTON SC
200 AM EDT TUE MAY 05 2015

NOTE: "FAIR" INDICATES FEW OR NO CLOUDS BELOW 12,000 FEET WITH NO
SIGNIFICANT WEATHER AND/OR OBSTRUCTIONS TO VISIBILITY.

NOT ALL STATIONS ARE QUALITY CONTROLLED BY THE NATIONAL
WEATHER SERVICE. USE DATA WITH CAUTION...ESPECIALLY
DEWPOINT OBSERVATIONS.

SCZ027-030-031-034>040-042>050-050700-
...SOUTHEAST SOUTH CAROLINA...

CITY           SKY/WX    TMP DP  RH WIND       PRES   REMARKS
N CHARLESTON   PTCLDY    59  56  89 N3        30.32F
6HR MIN TEMP:  59; 6HR MAX TEMP:  71;

WATERFRONT PRK   N/A     66 N/A N/A S6          N/A
MOUNT PLEASANT FAIR      59  57  94 MISG      30.31F
PINOPOLIS      NOT AVBL
MONCKS CORNER  FAIR      55  54  94 CALM      30.31F
SUMMERVILLE    FAIR      55  55 100 CALM      30.32F
BEAUFORT MCAS  CLEAR     61  59  93 N5        30.30F
6HR MIN TEMP:  61; 6HR MAX TEMP:  71;

BEAUFORT ARPT  FAIR      63  63 100 CALM      30.29F
HILTON HEAD IS CLEAR     64  63  94 NE3       30.30F
WALTERBORO     CLEAR     55  54  94 E3        30.32F
ALLENDALE      FAIR      59  55  88 CALM      30.31F

...SOUTHERN MIDLANDS AND PEE DEE...

CITY           SKY/WX    TMP DP  RH WIND       PRES   REMARKS
GEORGETOWN     NOT AVBL
KINGSTREE      NOT AVBL
ORANGEBURG     CLEAR     57  53  86 CALM      30.33F
6HR MIN TEMP:  57; 6HR MAX TEMP:  71;

BARNWELL       FAIR      55  55 100 CALM      30.32F
AIKEN          FAIR      55  50  82 CALM      30.35F
MANNING        FAIR      52  50  93 CALM      30.32F
COLUMBIA       CLEAR     61  54  77 CALM      30.32F
6HR MIN TEMP:  61; 6HR MAX TEMP:  76;

SUMTER         CLEAR     59  55  88 CALM      30.32F
6HR MIN TEMP:  59; 6HR MAX TEMP:  73;

FLORENCE       CLEAR     58  54  86 S3        30.33F
6HR MIN TEMP:  58; 6HR MAX TEMP:  73;

MYRTLE BEACH     N/A     61  55  82 CALM      30.35F
N MYRTLE BEACH CLEAR     57  55  93 CALM      30.33F
6HR MIN TEMP:  57; 6HR MAX TEMP:  70;


$$

GAZ063-065-086>088-099>101-113>116-118-119-134>141-150-050700-
...SOUTHEAST GEORGIA...

CITY           SKY/WX    TMP DP  RH WIND       PRES   REMARKS
SAVANNAH ARPT  CLEAR     60  57  89 CALM      30.30F
6HR MIN TEMP:  60; 6HR MAX TEMP:  72;

HUNTER AAF     CLEAR     63  61  94 CALM      30.27F
6HR MIN TEMP:  61; 6HR MAX TEMP:  71;

FORT STEWART   NOT AVBL
STATESBORO       N/A     55  55 100 CALM      30.30F
SYLVANIA       CLEAR     56  56  99 CALM      30.31F
CLAXTON        FAIR      54  54 100 CALM      30.29F

...CSRA...CENTRAL AND FAR SOUTHEAST GEORGIA...

CITY           SKY/WX    TMP DP  RH WIND       PRES   REMARKS
THOMSON        CLEAR     60  58  92 CALM      30.35F
AUGUSTA-BUSH   CLEAR     55  54  96 CALM      30.31F
6HR MIN TEMP:  54; 6HR MAX TEMP:  73;

AUGUSTA-DANIEL CLEAR     64  55  72 SE5       30.32F
SWAINSBORO     NOT AVBL
VIDALIA        CLEAR     61  55  82 CALM      30.29F
EASTMAN        FAIR      56  56 100 CALM      30.31S
HAZLEHURST     FAIR      65  59  81 E5        30.27F
ALMA           CLEAR     58  55  90 NE3       30.27F
6HR MIN TEMP:  57; 6HR MAX TEMP:  73;

WAYCROSS       CLEAR     63  60  90 CALM      30.26F
JESUP          FAIR      63  61  94 CALM      30.27F
BAXLEY         FAIR      61  59  94 E3        30.27F
BRUNSWICK      CLEAR     61  59  94 CALM      30.27F
SAINT SIMONS   PTCLDY    69  61  75 NE8       30.26F
6HR MIN TEMP:  69; 6HR MAX TEMP:  72;


$$

SCZ027-028-034-036>038-045-046-048>050-GAZ119-141-050700-
...LAKE AND SUPPLEMENTAL COASTAL OBSERVATIONS...

STATION/POSITION TIME  TEMP    WIND        PRES    WAVE   SWELL
                       AIR SEA DIR/SP/G            HT/PER HT/PER/DIR
                 (UTC) (F)     (DEG/KT/KT) (MB)    (FT/S) (FT/S/D)
UPR LAKE MARION  NOT AVBL
WINYAH BAY       0545   60     310/  2     1026.0S
LAKE MURRAY      0500   68     170/  9/ 12 1026.4S
ACE BASIN NERRS  NOT AVBL
FORT PULASKI     0500   69 71  100/  4/  5 1026.5F
SAPELO ISLAND    0600   64      50/  4     1025.0S

$$

ANZ835-935-AMZ111-154-330-350-352-354-370-450-454-472-050700-
...C-MAN AND BUOY OBSERVATIONS...

STATION/POSITION TIME  TEMP    WIND        PRES    WAVE   SWELL
                       AIR SEA DIR/SP/G            HT/PER HT/PER/DIR
                 (UTC) (F)     (DEG/KT/KT) (MB)    (FT/S) (FT/S/D)
BUOY 41004       0550   73 74  100/ 12/ 16 1025.7F   4/ 6   3/ 6
BUOY 41008       0550   71 70   70/  8/ 10 1025.3F   3/ 7   3/110/ 7
FOLLY BEACH CMAN 0600   70     100/  7/  8 1026.2F
CAPERS NEARSHORE 0508   71     130/ 10/ 14 1026.7F
FRIPP NEARSHORE  0500   71      90/  8/  8 1025.5F


STATION/POSITION TIME  TEMP    WIND        PRES    WAVE   SWELL
                       AIR SEA DIR/SP/G            HT/PER HT/PER/DIR
                 (UTC) (F)     (DEG/KT/KT) (MB)    (FT/S) (FT/S/D)
5E ST. MARYS GA  0521      72                N/A     4/ 6   2/100/11
FRYING PAN BUOY  0550   73 71  140/ 12/ 14 1028.1F   4/ 9   3/ 70/ 9
BUOY 41025       0550   73 77  190/ 14/ 16 1027.6F   3/11   3/ 60/11
CAPE LOOKOUT NC  0600   67     190/  6/  6 1027.4F
BUOY 41002       0550   68 70  110/ 14/ 16 1027.0F   5/11   3/ 50/11
BUOY 41010       0520   74 78   80/ 17/ 21 1022.9F
ST AUGUSTINE FL  0600   72 71   80/  9/ 10 1024.0F


$$



USA.gov is the U.S. government's official web portal to all federal, state and local government web resources and services.